BEIDOU-3 M17 (C36)

Last updated on Jan. 22, 2021, 6:27 a.m. UTC

1 43706U 18093A   21021.94603993  .00000055  00000-0  00000-0 0  9990
2 43706  54.5430 249.4756 0008511 280.1153 345.7930  1.86231809 14795
UTC
Height (km)
Latitude
Longitude
Inclination
Orbital Period
UTC large
Height (km)
Speed (km/s)
/
Latitude / Longitude
Inclination (degrees)
Orbital Period (minutes)
Azimuth
Elevation
Range (km)
Doppler Factor
iOS Compass Heading
iOS Angle

Next 30 passes for location: Hong Kong

Rise time Rise Azimuth (degrees) Set time Set Azimuth (degrees) Duration Max altitude (degrees)

No matching passes for this satellites